Weather in Semenovka

Russia / Saratov Oblast     51°10′51″N   47°36′22″E
temp.,
°C
wind,
m/s
gust,
m/s
humid.,
%
clouds,
%
prec.,
mm/h
press.,
hPa
HPBL,
m
9 may, sun
sun901:00+15sse4552100 0.0 101373
04:00+15se495777 0.1 1012158
07:00+16sse61260100 0.0 1012361
10:00+20s71044100 0.0 1012765
13:00+23s91234100 0.0 10111806
16:00+21s5937100 0.0 10111354
19:00+21se2348100 0.0 101044
22:00+18ese41252100 0.0 1010283
10 may, mon
mon1001:00+17se4757100 0.0 1010137
04:00+15ese4859100 0.0 1011139
07:00+16e61555100 0.0 1011330
10:00+22ese91437100 0.0 1011981
13:00+24ese81337100 0.0 10121731
16:00+24e91434100 0.0 10111866
19:00+22e71442100 0.0 1012574
22:00+16nne4975100 0.5 1014187
11 may, tue
tue1101:00+13s2382100 0.0 1016149
04:00+10s5883100 0.0 1019405
07:00+9ssw467939 0.1 1022440
10:00+13sw225218 0.1 1024766
13:00+18ne12391 0.0 10231132
16:00+15ssw4468100 0.6 1024347
19:00+13sse4984100 2.8 1024568
22:00+12ne5795100 12.5 1024232
12 may, wed
wed1201:00+14ne71295100 2.6 1023408
04:00+15ene61379100 2.8 1022423
07:00+15e71971100 0.0 1022569
10:00+18ese71563100 0.0 1023652
13:00+20se7115695 0.0 1023829
16:00+20se6115628 0.0 1023558
19:00+20ese61253100 0.0 1023395
22:00+18e6145395 0.0 1023373
13 may, thu
thu1301:00+16e5155349 0.0 1022361
04:00+16e6155276 0.1 1022373
07:00+16ese61456100 0.0 1022370
10:00+17ese61256100 0.1 1023440
13:00+22se8113682 0.0 10231089
16:00+24se81233100 0.0 10221677
19:00+21ese5104724 0.1 1022348
22:00+18e615560 0.1 1022312